Year,Month,Day,Hour,Minute,Value (Times are PST for temperature in C)
2009,03,27,00,00,3.80
2009,03,27,00,01,3.80
2009,03,27,00,02,3.80
2009,03,27,00,03,3.80
2009,03,27,00,04,3.80
2009,03,27,00,05,3.80
2009,03,27,00,06,3.80
2009,03,27,00,07,3.80
2009,03,27,00,08,3.80
2009,03,27,00,09,3.80
2009,03,27,00,10,3.80
2009,03,27,00,11,3.80
2009,03,27,00,12,3.80
2009,03,27,00,13,3.80
2009,03,27,00,14,3.80
2009,03,27,00,15,3.80
2009,03,27,00,16,3.80
2009,03,27,00,17,3.80
2009,03,27,00,18,3.80
2009,03,27,00,19,3.80
2009,03,27,00,20,3.80
2009,03,27,00,21,3.80
2009,03,27,00,22,3.80
2009,03,27,00,23,3.80
2009,03,27,00,24,3.80
2009,03,27,00,25,3.80
2009,03,27,00,26,3.80
2009,03,27,00,27,3.80
2009,03,27,00,28,3.80
2009,03,27,00,29,3.80
2009,03,27,00,30,3.80
2009,03,27,00,31,3.80
2009,03,27,00,32,3.80
2009,03,27,00,33,3.80
2009,03,27,00,34,3.80
2009,03,27,00,35,3.80
2009,03,27,00,36,3.80
2009,03,27,00,37,3.80
2009,03,27,00,38,3.80
2009,03,27,00,39,3.80
2009,03,27,00,40,3.80
2009,03,27,00,41,3.80
2009,03,27,00,42,3.80
2009,03,27,00,43,3.80
2009,03,27,00,44,3.90
2009,03,27,00,45,3.90
2009,03,27,00,46,3.90
2009,03,27,00,47,3.90
2009,03,27,00,48,3.90
2009,03,27,00,49,3.90
2009,03,27,00,50,3.90
2009,03,27,00,51,3.90
2009,03,27,00,52,3.90
2009,03,27,00,53,3.90
2009,03,27,00,54,3.90
2009,03,27,00,55,3.90
2009,03,27,00,56,3.90
2009,03,27,00,57,3.90
2009,03,27,00,58,3.90
2009,03,27,00,59,3.90
2009,03,27,01,00,3.90
2009,03,27,01,01,3.90
2009,03,27,01,02,3.90
2009,03,27,01,03,4.00
2009,03,27,01,04,4.00
2009,03,27,01,05,4.00
2009,03,27,01,06,4.00
2009,03,27,01,07,4.00
2009,03,27,01,08,4.00
2009,03,27,01,09,4.00
2009,03,27,01,10,4.00
2009,03,27,01,11,4.10
2009,03,27,01,12,4.10
2009,03,27,01,13,4.10
2009,03,27,01,14,4.10
2009,03,27,01,15,4.10
2009,03,27,01,16,4.20
2009,03,27,01,17,4.20
2009,03,27,01,18,4.20
2009,03,27,01,19,4.20
2009,03,27,01,20,4.20
2009,03,27,01,21,4.20
2009,03,27,01,22,4.20
2009,03,27,01,23,4.20
2009,03,27,01,24,4.20
2009,03,27,01,25,4.20
2009,03,27,01,26,4.20
2009,03,27,01,27,4.20
2009,03,27,01,28,4.20
2009,03,27,01,29,4.20
2009,03,27,01,30,4.20
2009,03,27,01,31,4.20
2009,03,27,01,32,4.20
2009,03,27,01,33,4.20
2009,03,27,01,34,4.20
2009,03,27,01,35,4.20
2009,03,27,01,36,4.20
2009,03,27,01,37,4.20
2009,03,27,01,38,4.20
2009,03,27,01,39,4.20
2009,03,27,01,40,4.20
2009,03,27,01,41,4.20
2009,03,27,01,42,4.30
2009,03,27,01,43,4.30
2009,03,27,01,44,4.30
2009,03,27,01,45,4.30
2009,03,27,01,46,4.30
2009,03,27,01,47,4.30
2009,03,27,01,48,4.30
2009,03,27,01,49,4.30
2009,03,27,01,50,4.30
2009,03,27,01,51,4.30
2009,03,27,01,52,4.30
2009,03,27,01,53,4.30
2009,03,27,01,54,4.30
2009,03,27,01,55,4.30
2009,03,27,01,56,4.30
2009,03,27,01,57,4.30
2009,03,27,01,58,4.30
2009,03,27,01,59,4.30
2009,03,27,02,00,4.30
2009,03,27,02,01,4.20
2009,03,27,02,02,4.20
2009,03,27,02,03,4.20
2009,03,27,02,04,4.20
2009,03,27,02,05,4.20
2009,03,27,02,06,4.20
2009,03,27,02,07,4.20
2009,03,27,02,08,4.20
2009,03,27,02,09,4.20
2009,03,27,02,10,4.20
2009,03,27,02,11,4.20
2009,03,27,02,12,4.20
2009,03,27,02,13,4.20
2009,03,27,02,14,4.20
2009,03,27,02,15,4.20
2009,03,27,02,16,4.10
2009,03,27,02,17,4.10
2009,03,27,02,18,4.10
2009,03,27,02,19,4.10
2009,03,27,02,20,4.10
2009,03,27,02,21,4.10
2009,03,27,02,22,4.10
2009,03,27,02,23,4.10
2009,03,27,02,24,4.10
2009,03,27,02,25,4.10
2009,03,27,02,26,4.10
2009,03,27,02,27,4.10
2009,03,27,02,28,4.10
2009,03,27,02,29,4.10
2009,03,27,02,30,4.10
2009,03,27,02,31,4.10
2009,03,27,02,32,4.10
2009,03,27,02,33,4.10
2009,03,27,02,34,4.10
2009,03,27,02,35,4.20
2009,03,27,02,36,4.20
2009,03,27,02,37,4.20
2009,03,27,02,38,4.20
2009,03,27,02,39,4.20
2009,03,27,02,40,4.20
2009,03,27,02,41,4.20
2009,03,27,02,42,4.20
2009,03,27,02,43,4.20
2009,03,27,02,44,4.20
2009,03,27,02,45,4.20
2009,03,27,02,46,4.30
2009,03,27,02,47,4.30
2009,03,27,02,48,4.30
2009,03,27,02,49,4.30
2009,03,27,02,50,4.40
2009,03,27,02,51,4.40
2009,03,27,02,52,4.40
2009,03,27,02,53,4.40
2009,03,27,02,54,4.40
2009,03,27,02,55,4.40
2009,03,27,02,56,4.40
2009,03,27,02,57,4.40
2009,03,27,02,58,4.40
2009,03,27,02,59,4.50
2009,03,27,03,00,4.50
2009,03,27,03,01,4.50
2009,03,27,03,02,4.60
2009,03,27,03,04,4.60
2009,03,27,03,05,4.60
2009,03,27,03,06,4.60
2009,03,27,03,07,4.60
2009,03,27,03,08,4.60
2009,03,27,03,09,4.60
2009,03,27,03,10,4.60
2009,03,27,03,11,4.60
2009,03,27,03,12,4.60
2009,03,27,03,13,4.60
2009,03,27,03,14,4.60
2009,03,27,03,15,4.60
2009,03,27,03,16,4.60
2009,03,27,03,17,4.60
2009,03,27,03,18,4.60
2009,03,27,03,19,4.60
2009,03,27,03,20,4.60
2009,03,27,03,21,4.60
2009,03,27,03,22,4.60
2009,03,27,03,23,4.50
2009,03,27,03,24,4.50
2009,03,27,03,25,4.50
2009,03,27,03,26,4.50
2009,03,27,03,27,4.50
2009,03,27,03,28,4.50
2009,03,27,03,29,4.50
2009,03,27,03,30,4.50
2009,03,27,03,31,4.50
2009,03,27,03,32,4.50
2009,03,27,03,33,4.50
2009,03,27,03,34,4.50
2009,03,27,03,35,4.50
2009,03,27,03,36,4.50
2009,03,27,03,37,4.50
2009,03,27,03,38,4.50
2009,03,27,03,39,4.40
2009,03,27,03,40,4.40
2009,03,27,03,41,4.40
2009,03,27,03,42,4.40
2009,03,27,03,43,4.40
2009,03,27,03,44,4.40
2009,03,27,03,45,4.40
2009,03,27,03,46,4.40
2009,03,27,03,47,4.40
2009,03,27,03,48,4.40
2009,03,27,03,49,4.40
2009,03,27,03,50,4.40
2009,03,27,03,51,4.40
2009,03,27,03,52,4.40
2009,03,27,03,53,4.40
2009,03,27,03,54,4.40
2009,03,27,03,55,4.40
2009,03,27,03,56,4.30
2009,03,27,03,57,4.30
2009,03,27,03,58,4.30
2009,03,27,03,59,4.30
2009,03,27,04,00,4.30
2009,03,27,04,01,4.30
2009,03,27,04,02,4.30
2009,03,27,04,03,4.30
2009,03,27,04,04,4.30
2009,03,27,04,05,4.30
2009,03,27,04,06,4.30
2009,03,27,04,07,4.30
2009,03,27,04,08,4.30
2009,03,27,04,09,4.30
2009,03,27,04,10,4.30
2009,03,27,04,11,4.30
2009,03,27,04,12,4.30
2009,03,27,04,13,4.30
2009,03,27,04,14,4.30
2009,03,27,04,15,4.40
2009,03,27,04,16,4.30
2009,03,27,04,17,4.30
2009,03,27,04,18,4.30
2009,03,27,04,19,4.40
2009,03,27,04,20,4.40
2009,03,27,04,21,4.40
2009,03,27,04,22,4.40
2009,03,27,04,23,4.30
2009,03,27,04,24,4.30
2009,03,27,04,25,4.30
2009,03,27,04,26,4.30
2009,03,27,04,27,4.30
2009,03,27,04,28,4.30
2009,03,27,04,29,4.30
2009,03,27,04,30,4.30
2009,03,27,04,31,4.30
2009,03,27,04,32,4.30
2009,03,27,04,33,4.30
2009,03,27,04,34,4.30
2009,03,27,04,35,4.30
2009,03,27,04,36,4.30
2009,03,27,04,37,4.30
2009,03,27,04,38,4.30
2009,03,27,04,39,4.30
2009,03,27,04,40,4.30
2009,03,27,04,41,4.30
2009,03,27,04,42,4.30
2009,03,27,04,43,4.30
2009,03,27,04,44,4.30
2009,03,27,04,45,4.30
2009,03,27,04,46,4.30
2009,03,27,04,47,4.40
2009,03,27,04,48,4.40
2009,03,27,04,49,4.40
2009,03,27,04,50,4.40
2009,03,27,04,51,4.40
2009,03,27,04,52,4.40
2009,03,27,04,53,4.40
2009,03,27,04,54,4.40
2009,03,27,04,55,4.40
2009,03,27,04,56,4.40
2009,03,27,04,57,4.40
2009,03,27,04,58,4.40
2009,03,27,04,59,4.40
2009,03,27,05,00,4.40
2009,03,27,05,01,4.40
2009,03,27,05,02,4.40
2009,03,27,05,03,4.40
2009,03,27,05,04,4.40
2009,03,27,05,05,4.40
2009,03,27,05,06,4.40
2009,03,27,05,07,4.40
2009,03,27,05,08,4.40
2009,03,27,05,09,4.40
2009,03,27,05,10,4.40
2009,03,27,05,11,4.40
2009,03,27,05,12,4.40
2009,03,27,05,13,4.40
2009,03,27,05,14,4.40
2009,03,27,05,15,4.40
2009,03,27,05,16,4.40
2009,03,27,05,17,4.40
2009,03,27,05,18,4.40
2009,03,27,05,19,4.50
2009,03,27,05,20,4.50
2009,03,27,05,21,4.40
2009,03,27,05,22,4.40
2009,03,27,05,23,4.40
2009,03,27,05,24,4.40
2009,03,27,05,25,4.50
2009,03,27,05,26,4.50
2009,03,27,05,27,4.50
2009,03,27,05,28,4.50
2009,03,27,05,29,4.50
2009,03,27,05,30,4.50
2009,03,27,05,31,4.50
2009,03,27,05,32,4.50
2009,03,27,05,33,4.50
2009,03,27,05,34,4.50
2009,03,27,05,35,4.40
2009,03,27,05,36,4.40
2009,03,27,05,37,4.40
2009,03,27,05,38,4.40
2009,03,27,05,39,4.40
2009,03,27,05,40,4.40
2009,03,27,05,41,4.50
2009,03,27,05,42,4.50
2009,03,27,05,43,4.50
2009,03,27,05,44,4.50
2009,03,27,05,45,4.50
2009,03,27,05,46,4.50
2009,03,27,05,47,4.50
2009,03,27,05,48,4.50
2009,03,27,05,49,4.50
2009,03,27,05,50,4.50
2009,03,27,05,51,4.60
2009,03,27,05,52,4.60
2009,03,27,05,53,4.60
2009,03,27,05,54,4.60
2009,03,27,05,55,4.60
2009,03,27,05,56,4.60
2009,03,27,05,57,4.70
2009,03,27,05,58,4.70
2009,03,27,05,59,4.70
2009,03,27,06,00,4.70
2009,03,27,06,01,4.70
2009,03,27,06,02,4.70
2009,03,27,06,03,4.70
2009,03,27,06,04,4.70
2009,03,27,06,05,4.70
2009,03,27,06,06,4.60
2009,03,27,06,07,4.60
2009,03,27,06,08,4.60
2009,03,27,06,09,4.60
2009,03,27,06,10,4.60
2009,03,27,06,11,4.60
2009,03,27,06,12,4.60
2009,03,27,06,13,4.60
2009,03,27,06,14,4.60
2009,03,27,06,15,4.60
2009,03,27,06,16,4.60
2009,03,27,06,17,4.60
2009,03,27,06,18,4.60
2009,03,27,06,19,4.60
2009,03,27,06,20,4.60
2009,03,27,06,21,4.60
2009,03,27,06,22,4.50
2009,03,27,06,23,4.50
2009,03,27,06,24,4.50
2009,03,27,06,25,4.50
2009,03,27,06,26,4.50
2009,03,27,06,27,4.50
2009,03,27,06,28,4.50
2009,03,27,06,29,4.40
2009,03,27,06,30,4.40
2009,03,27,06,31,4.40
2009,03,27,06,32,4.40
2009,03,27,06,33,4.40
2009,03,27,06,34,4.40
2009,03,27,06,35,4.40
2009,03,27,06,36,4.30
2009,03,27,06,37,4.30
2009,03,27,06,38,4.30
2009,03,27,06,39,4.30
2009,03,27,06,40,4.30
2009,03,27,06,41,4.30
2009,03,27,06,42,4.30
2009,03,27,06,43,4.20
2009,03,27,06,44,4.20
2009,03,27,06,45,4.20
2009,03,27,06,46,4.20
2009,03,27,06,47,4.20
2009,03,27,06,48,4.20
2009,03,27,06,49,4.20
2009,03,27,06,50,4.20
2009,03,27,06,51,4.20
2009,03,27,06,52,4.20
2009,03,27,06,53,4.20
2009,03,27,06,54,4.20
2009,03,27,06,55,4.20
2009,03,27,06,56,4.20
2009,03,27,06,57,4.20
2009,03,27,06,58,4.20
2009,03,27,06,59,4.20
2009,03,27,07,00,4.20
2009,03,27,07,01,4.20
2009,03,27,07,02,4.20
2009,03,27,07,03,4.20
2009,03,27,07,04,4.20
2009,03,27,07,05,4.20
2009,03,27,07,06,4.20
2009,03,27,07,07,4.20
2009,03,27,07,08,4.20
2009,03,27,07,09,4.30
2009,03,27,07,10,4.30
2009,03,27,07,11,4.40
2009,03,27,07,12,4.40
2009,03,27,07,13,4.40
2009,03,27,07,14,4.40
2009,03,27,07,15,4.40
2009,03,27,07,16,4.40
2009,03,27,07,17,4.40
2009,03,27,07,18,4.40
2009,03,27,07,19,4.40
2009,03,27,07,20,4.40
2009,03,27,07,21,4.40
2009,03,27,07,22,4.40
2009,03,27,07,23,4.40
2009,03,27,07,24,4.40
2009,03,27,07,25,4.30
2009,03,27,07,26,4.40
2009,03,27,07,27,4.40
2009,03,27,07,28,4.40
2009,03,27,07,29,4.40
2009,03,27,07,30,4.40
2009,03,27,07,31,4.50
2009,03,27,07,32,4.60
2009,03,27,07,33,4.60
2009,03,27,07,34,4.60
2009,03,27,07,35,4.60
2009,03,27,07,36,4.70
2009,03,27,07,37,4.80
2009,03,27,07,38,4.80
2009,03,27,07,39,4.80
2009,03,27,07,40,4.90
2009,03,27,07,41,4.90
2009,03,27,07,42,4.90
2009,03,27,07,43,4.90
2009,03,27,07,44,4.90
2009,03,27,07,45,5.00
2009,03,27,07,46,5.10
2009,03,27,07,47,5.10
2009,03,27,07,48,5.10
2009,03,27,07,49,5.10
2009,03,27,07,50,5.10
2009,03,27,07,51,5.10
2009,03,27,07,52,5.20
2009,03,27,07,53,5.20
2009,03,27,07,54,5.20
2009,03,27,07,55,5.30
2009,03,27,07,56,5.30
2009,03,27,07,57,5.30
2009,03,27,07,58,5.30
2009,03,27,07,59,5.40
2009,03,27,08,00,5.40
2009,03,27,08,01,5.40
2009,03,27,08,02,5.50
2009,03,27,08,03,5.50
2009,03,27,08,04,5.60
2009,03,27,08,05,5.70
2009,03,27,08,06,5.70
2009,03,27,08,07,5.70
2009,03,27,08,08,5.80
2009,03,27,08,09,5.90
2009,03,27,08,10,5.90
2009,03,27,08,11,6.00
2009,03,27,08,12,6.00
2009,03,27,08,13,6.10
2009,03,27,08,14,6.10
2009,03,27,08,15,6.10
2009,03,27,08,16,6.20
2009,03,27,08,17,6.20
2009,03,27,08,18,6.20
2009,03,27,08,19,6.20
2009,03,27,08,20,6.20
2009,03,27,08,21,6.20
2009,03,27,08,22,6.20
2009,03,27,08,23,6.20
2009,03,27,08,24,6.20
2009,03,27,08,25,6.20
2009,03,27,08,26,6.30
2009,03,27,08,27,6.30
2009,03,27,08,28,6.30
2009,03,27,08,29,6.30
2009,03,27,08,30,6.30
2009,03,27,08,31,6.30
2009,03,27,08,32,6.30
2009,03,27,08,33,6.30
2009,03,27,08,34,6.30
2009,03,27,08,35,6.30
2009,03,27,08,36,6.30
2009,03,27,08,37,6.40
2009,03,27,08,38,6.40
2009,03,27,08,39,6.40
2009,03,27,08,40,6.40
2009,03,27,08,41,6.40
2009,03,27,08,42,6.40
2009,03,27,08,43,6.40
2009,03,27,08,44,6.40
2009,03,27,08,45,6.40
2009,03,27,08,46,6.40
2009,03,27,08,47,6.50
2009,03,27,08,48,6.60
2009,03,27,08,49,6.60
2009,03,27,08,50,6.60
2009,03,27,08,51,6.60
2009,03,27,08,52,6.60
2009,03,27,08,53,6.60
2009,03,27,08,54,6.60
2009,03,27,08,55,6.70
2009,03,27,08,56,6.60
2009,03,27,08,57,6.70
2009,03,27,08,58,6.70
2009,03,27,08,59,6.70
2009,03,27,09,00,6.70
2009,03,27,09,01,6.70
2009,03,27,09,02,6.70
2009,03,27,09,03,6.70
2009,03,27,09,04,6.70
2009,03,27,09,05,6.70
2009,03,27,09,06,6.70
2009,03,27,09,07,6.80
2009,03,27,09,08,6.80
2009,03,27,09,09,6.80
2009,03,27,09,10,6.80
2009,03,27,09,11,6.80
2009,03,27,09,12,6.80
2009,03,27,09,13,6.80
2009,03,27,09,14,6.80
2009,03,27,09,15,6.80
2009,03,27,09,16,6.80
2009,03,27,09,17,6.80
2009,03,27,09,18,6.80
2009,03,27,09,19,6.80
2009,03,27,09,20,6.80
2009,03,27,09,21,6.80
2009,03,27,09,22,6.90
2009,03,27,09,23,7.00
2009,03,27,09,24,7.00
2009,03,27,09,25,7.10
2009,03,27,09,26,7.20
2009,03,27,09,27,7.20
2009,03,27,09,28,7.30
2009,03,27,09,29,7.30
2009,03,27,09,30,7.30
2009,03,27,09,31,7.30
2009,03,27,09,32,7.30
2009,03,27,09,33,7.30
2009,03,27,09,34,7.30
2009,03,27,09,35,7.30
2009,03,27,09,36,7.30
2009,03,27,09,37,7.30
2009,03,27,09,38,7.30
2009,03,27,09,39,7.30
2009,03,27,09,40,7.30
2009,03,27,09,41,7.30
2009,03,27,09,42,7.30
2009,03,27,09,43,7.30
2009,03,27,09,44,7.30
2009,03,27,09,45,7.30
2009,03,27,09,46,7.30
2009,03,27,09,47,7.30
2009,03,27,09,48,7.30
2009,03,27,09,49,7.30
2009,03,27,09,50,7.30
2009,03,27,09,51,7.40
2009,03,27,09,52,7.40
2009,03,27,09,53,7.40
2009,03,27,09,54,7.40
2009,03,27,09,55,7.50
2009,03,27,09,56,7.40
2009,03,27,09,57,7.40
2009,03,27,09,58,7.40
2009,03,27,09,59,7.30
2009,03,27,10,00,7.30
2009,03,27,10,01,7.30
2009,03,27,10,02,7.30
2009,03,27,10,03,7.30
2009,03,27,10,04,7.30
2009,03,27,10,05,7.30
2009,03,27,10,06,7.30
2009,03,27,10,07,7.30
2009,03,27,10,08,7.30
2009,03,27,10,09,7.30
2009,03,27,10,10,7.30
2009,03,27,10,11,7.30
2009,03,27,10,12,7.20
2009,03,27,10,13,7.30
2009,03,27,10,14,7.30
2009,03,27,10,15,7.30
2009,03,27,10,16,7.30
2009,03,27,10,17,7.20
2009,03,27,10,18,7.20
2009,03,27,10,19,7.20
2009,03,27,10,20,7.20
2009,03,27,10,21,7.10
2009,03,27,10,22,7.00
2009,03,27,10,23,7.00
2009,03,27,10,24,6.80
2009,03,27,10,25,6.80
2009,03,27,10,26,6.80
2009,03,27,10,27,6.70
2009,03,27,10,28,6.60
2009,03,27,10,29,6.60
2009,03,27,10,30,6.60
2009,03,27,10,31,6.50
2009,03,27,10,32,6.40
2009,03,27,10,33,6.40
2009,03,27,10,34,6.40
2009,03,27,10,35,6.40
2009,03,27,10,36,6.40
2009,03,27,10,37,6.30
2009,03,27,10,38,6.30
2009,03,27,10,39,6.30
2009,03,27,10,40,6.30
2009,03,27,10,41,6.30
2009,03,27,10,42,6.30
2009,03,27,10,43,6.20
2009,03,27,10,44,6.20
2009,03,27,10,45,6.20
2009,03,27,10,46,6.20
2009,03,27,10,47,6.10
2009,03,27,10,48,6.10
2009,03,27,10,49,6.00
2009,03,27,10,50,6.00
2009,03,27,10,51,6.00
2009,03,27,10,52,6.00
2009,03,27,10,53,6.00
2009,03,27,10,54,6.00
2009,03,27,10,55,5.90
2009,03,27,10,56,5.90
2009,03,27,10,57,5.90
2009,03,27,10,58,5.90
2009,03,27,10,59,5.80
2009,03,27,11,00,5.70
2009,03,27,11,01,5.70
2009,03,27,11,02,5.70
2009,03,27,11,03,5.60
2009,03,27,11,04,5.50
2009,03,27,11,05,5.50
2009,03,27,11,06,5.50
2009,03,27,11,07,5.40
2009,03,27,11,08,5.40
2009,03,27,11,09,5.40
2009,03,27,11,10,5.30
2009,03,27,11,11,5.30
2009,03,27,11,12,5.30
2009,03,27,11,13,5.20
2009,03,27,11,14,5.20
2009,03,27,11,15,5.20
2009,03,27,11,16,5.20
2009,03,27,11,17,5.20
2009,03,27,11,18,5.20
2009,03,27,11,19,5.20
2009,03,27,11,20,5.20
2009,03,27,11,21,5.10
2009,03,27,11,22,5.10
2009,03,27,11,23,5.10
2009,03,27,11,24,5.10
2009,03,27,11,25,5.10
2009,03,27,11,26,5.10
2009,03,27,11,27,5.10
2009,03,27,11,28,5.10
2009,03,27,11,29,5.10
2009,03,27,11,30,5.10
2009,03,27,11,31,5.10
2009,03,27,11,32,5.10
2009,03,27,11,33,5.10
2009,03,27,11,34,5.10
2009,03,27,11,35,5.10
2009,03,27,11,36,5.10
2009,03,27,11,37,5.00
2009,03,27,11,38,4.90
2009,03,27,11,39,4.90
2009,03,27,11,40,4.90
2009,03,27,11,41,4.90
2009,03,27,11,42,4.90
2009,03,27,11,43,4.90
2009,03,27,11,44,4.90
2009,03,27,11,45,4.90
2009,03,27,11,46,4.90
2009,03,27,11,47,4.90
2009,03,27,11,48,4.90
2009,03,27,11,49,4.90
2009,03,27,11,50,4.90
2009,03,27,11,51,4.90
2009,03,27,11,52,4.90
2009,03,27,11,53,4.90
2009,03,27,11,54,4.90
2009,03,27,11,55,5.00
2009,03,27,11,56,5.10
2009,03,27,11,57,5.10
2009,03,27,11,58,5.10
2009,03,27,11,59,5.10
2009,03,27,12,00,5.10
2009,03,27,12,01,5.10
2009,03,27,12,02,5.10
2009,03,27,12,03,5.10
2009,03,27,12,04,5.10
2009,03,27,12,05,5.20
2009,03,27,12,06,5.20
2009,03,27,12,07,5.30
2009,03,27,12,08,5.30
2009,03,27,12,09,5.30
2009,03,27,12,10,5.30
2009,03,27,12,11,5.30
2009,03,27,12,12,5.30
2009,03,27,12,13,5.40
2009,03,27,12,14,5.40
2009,03,27,12,15,5.40
2009,03,27,12,16,5.40
2009,03,27,12,17,5.40
2009,03,27,12,18,5.40
2009,03,27,12,19,5.40
2009,03,27,12,20,5.40
2009,03,27,12,21,5.40
2009,03,27,12,22,5.40
2009,03,27,12,23,5.40
2009,03,27,12,24,5.40
2009,03,27,12,25,5.30
2009,03,27,12,26,5.30
2009,03,27,12,27,5.30
2009,03,27,12,28,5.30
2009,03,27,12,29,5.30
2009,03,27,12,30,5.30
2009,03,27,12,31,5.40
2009,03,27,12,32,5.40
2009,03,27,12,33,5.40
2009,03,27,12,34,5.40
2009,03,27,12,35,5.40
2009,03,27,12,36,5.40
2009,03,27,12,37,5.50
2009,03,27,12,38,5.50
2009,03,27,12,39,5.50
2009,03,27,12,40,5.50
2009,03,27,12,41,5.60
2009,03,27,12,42,5.60
2009,03,27,12,43,5.60
2009,03,27,12,44,5.60
2009,03,27,12,45,5.60
2009,03,27,12,46,5.70
2009,03,27,12,47,5.70
2009,03,27,12,48,5.70
2009,03,27,12,49,5.60
2009,03,27,12,50,5.60
2009,03,27,12,51,5.60
2009,03,27,12,52,5.60
2009,03,27,12,53,5.60
2009,03,27,12,54,5.50
2009,03,27,12,55,5.50
2009,03,27,12,56,5.50
2009,03,27,12,57,5.60
2009,03,27,12,58,5.60
2009,03,27,12,59,5.60
2009,03,27,13,00,5.70
2009,03,27,13,01,5.70
2009,03,27,13,02,5.70
2009,03,27,13,03,5.70
2009,03,27,13,04,5.70
2009,03,27,13,05,5.70
2009,03,27,13,06,5.70
2009,03,27,13,07,5.70
2009,03,27,13,08,5.70
2009,03,27,13,09,5.80
2009,03,27,13,10,5.80
2009,03,27,13,11,5.90
2009,03,27,13,12,5.90
2009,03,27,13,13,5.90
2009,03,27,13,14,5.90
2009,03,27,13,15,6.00
2009,03,27,13,16,6.00
2009,03,27,13,17,6.00
2009,03,27,13,18,6.00
2009,03,27,13,19,6.00
2009,03,27,13,20,5.90
2009,03,27,13,21,5.90
2009,03,27,13,22,5.90
2009,03,27,13,23,5.90
2009,03,27,13,24,5.90
2009,03,27,13,25,5.90
2009,03,27,13,26,5.90
2009,03,27,13,27,5.90
2009,03,27,13,28,5.90
2009,03,27,13,29,5.90
2009,03,27,13,30,5.90
2009,03,27,13,31,6.00
2009,03,27,13,32,6.00
2009,03,27,13,33,6.00
2009,03,27,13,34,6.00
2009,03,27,13,35,6.00
2009,03,27,13,36,6.00
2009,03,27,13,37,6.00
2009,03,27,13,38,6.10
2009,03,27,13,39,6.10
2009,03,27,13,40,6.20
2009,03,27,13,41,6.20
2009,03,27,13,42,6.20
2009,03,27,13,43,6.20
2009,03,27,13,44,6.20
2009,03,27,13,45,6.20
2009,03,27,13,46,6.30
2009,03,27,13,47,6.30
2009,03,27,13,48,6.40
2009,03,27,13,49,6.40
2009,03,27,13,50,6.50
2009,03,27,13,51,6.60
2009,03,27,13,52,6.60
2009,03,27,13,53,6.70
2009,03,27,13,54,6.80
2009,03,27,13,55,6.80
2009,03,27,13,56,6.80
2009,03,27,13,57,6.90
2009,03,27,13,58,7.00
2009,03,27,13,59,7.00
2009,03,27,14,00,7.10
2009,03,27,14,01,7.20
2009,03,27,14,02,7.20
2009,03,27,14,03,7.30
2009,03,27,14,04,7.50
2009,03,27,14,05,7.50
2009,03,27,14,06,7.60
2009,03,27,14,07,7.70
2009,03,27,14,08,7.70
2009,03,27,14,09,7.60
2009,03,27,14,10,7.60
2009,03,27,14,11,7.70
2009,03,27,14,12,7.70
2009,03,27,14,13,7.80
2009,03,27,14,14,7.80
2009,03,27,14,15,7.80
2009,03,27,14,16,7.80
2009,03,27,14,17,7.80
2009,03,27,14,18,7.80
2009,03,27,14,19,7.80
2009,03,27,14,20,7.90
2009,03,27,14,21,7.90
2009,03,27,14,22,7.90
2009,03,27,14,23,7.90
2009,03,27,14,24,7.90
2009,03,27,14,25,7.90
2009,03,27,14,26,7.80
2009,03,27,14,27,7.80
2009,03,27,14,28,7.80
2009,03,27,14,29,7.80
2009,03,27,14,30,7.90
2009,03,27,14,31,7.90
2009,03,27,14,32,7.90
2009,03,27,14,33,8.00
2009,03,27,14,34,8.10
2009,03,27,14,35,8.20
2009,03,27,14,36,8.30
2009,03,27,14,37,8.40
2009,03,27,14,38,8.40
2009,03,27,14,39,8.50
2009,03,27,14,40,8.60
2009,03,27,14,41,8.60
2009,03,27,14,42,8.60
2009,03,27,14,43,8.60
2009,03,27,14,44,8.60
2009,03,27,14,45,8.60
2009,03,27,14,46,8.70
2009,03,27,14,47,8.70
2009,03,27,14,48,8.80
2009,03,27,14,49,8.90
2009,03,27,14,50,9.00
2009,03,27,14,51,9.10
2009,03,27,14,52,9.10
2009,03,27,14,53,9.20
2009,03,27,14,54,9.30
2009,03,27,14,55,9.30
2009,03,27,14,56,9.30
2009,03,27,14,57,9.40
2009,03,27,14,58,9.40
2009,03,27,14,59,9.40
2009,03,27,15,00,9.40
2009,03,27,15,01,9.50
2009,03,27,15,02,9.50
2009,03,27,15,03,9.40
2009,03,27,15,04,9.40
2009,03,27,15,05,9.30
2009,03,27,15,06,9.30
2009,03,27,15,07,9.30
2009,03,27,15,08,9.40
2009,03,27,15,09,9.40
2009,03,27,15,10,9.50
2009,03,27,15,11,9.50
2009,03,27,15,12,9.50
2009,03,27,15,13,9.50
2009,03,27,15,14,9.60
2009,03,27,15,15,9.70
2009,03,27,15,16,9.70
2009,03,27,15,17,9.70
2009,03,27,15,18,9.70
2009,03,27,15,19,9.70
2009,03,27,15,20,9.60
2009,03,27,15,21,9.50
2009,03,27,15,22,9.50
2009,03,27,15,23,9.40
2009,03,27,15,24,9.30
2009,03,27,15,25,9.30
2009,03,27,15,26,9.20
2009,03,27,15,27,9.20
2009,03,27,15,28,9.10
2009,03,27,15,29,9.10
2009,03,27,15,30,9.10
2009,03,27,15,31,9.10
2009,03,27,15,32,9.10
2009,03,27,15,33,9.20
2009,03,27,15,34,9.20
2009,03,27,15,35,9.20
2009,03,27,15,36,9.20
2009,03,27,15,37,9.30
2009,03,27,15,38,9.30
2009,03,27,15,39,9.40
2009,03,27,15,40,9.40
2009,03,27,15,41,9.50
2009,03,27,15,42,9.60
2009,03,27,15,43,9.60
2009,03,27,15,44,9.60
2009,03,27,15,45,9.60
2009,03,27,15,46,9.50
2009,03,27,15,47,9.50
2009,03,27,15,48,9.50
2009,03,27,15,49,9.40
2009,03,27,15,50,9.40
2009,03,27,15,51,9.40
2009,03,27,15,52,9.40
2009,03,27,15,53,9.40
2009,03,27,15,54,9.50
2009,03,27,15,55,9.60
2009,03,27,15,56,9.60
2009,03,27,15,57,9.70
2009,03,27,15,58,9.60
2009,03,27,15,59,9.60
2009,03,27,16,00,9.60
2009,03,27,16,01,9.60
2009,03,27,16,02,9.70
2009,03,27,16,03,9.70
2009,03,27,16,04,9.70
2009,03,27,16,05,9.60
2009,03,27,16,06,9.60
2009,03,27,16,07,9.50
2009,03,27,16,08,9.50
2009,03,27,16,09,9.40
2009,03,27,16,10,9.40
2009,03,27,16,11,9.30
2009,03,27,16,12,9.30
2009,03,27,16,13,9.20
2009,03,27,16,14,9.20
2009,03,27,16,15,9.20
2009,03,27,16,16,9.20
2009,03,27,16,17,9.20
2009,03,27,16,18,9.20
2009,03,27,16,19,9.10
2009,03,27,16,20,9.10
2009,03,27,16,21,9.10
2009,03,27,16,22,9.00
2009,03,27,16,23,9.00
2009,03,27,16,24,9.00
2009,03,27,16,25,9.00
2009,03,27,16,26,8.90
2009,03,27,16,27,8.80
2009,03,27,16,28,8.80
2009,03,27,16,29,8.80
2009,03,27,16,30,8.80
2009,03,27,16,31,8.80
2009,03,27,16,32,8.70
2009,03,27,16,33,8.70
2009,03,27,16,34,8.70
2009,03,27,16,35,8.70
2009,03,27,16,36,8.70
2009,03,27,16,37,8.70
2009,03,27,16,38,8.70
2009,03,27,16,39,8.70
2009,03,27,16,40,8.70
2009,03,27,16,41,8.70
2009,03,27,16,42,8.60
2009,03,27,16,43,8.60
2009,03,27,16,44,8.60
2009,03,27,16,45,8.60
2009,03,27,16,46,8.60
2009,03,27,16,47,8.60
2009,03,27,16,48,8.60
2009,03,27,16,49,8.60
2009,03,27,16,50,8.50
2009,03,27,16,51,8.50
2009,03,27,16,52,8.40
2009,03,27,16,53,8.40
2009,03,27,16,54,8.40
2009,03,27,16,55,8.30
2009,03,27,16,56,8.30
2009,03,27,16,57,8.30
2009,03,27,16,58,8.20
2009,03,27,16,59,8.20
2009,03,27,17,00,8.20
2009,03,27,17,01,8.20
2009,03,27,17,02,8.10
2009,03,27,17,03,8.10
2009,03,27,17,04,8.10
2009,03,27,17,05,8.10
2009,03,27,17,06,8.10
2009,03,27,17,07,8.10
2009,03,27,17,08,8.10
2009,03,27,17,09,8.00
2009,03,27,17,10,8.00
2009,03,27,17,11,8.00
2009,03,27,17,12,8.00
2009,03,27,17,13,7.90
2009,03,27,17,14,7.90
2009,03,27,17,15,7.90
2009,03,27,17,16,7.90
2009,03,27,17,17,7.80
2009,03,27,17,18,7.80
2009,03,27,17,19,7.80
2009,03,27,17,20,7.80
2009,03,27,17,21,7.80
2009,03,27,17,22,7.80
2009,03,27,17,23,7.70
2009,03,27,17,24,7.70
2009,03,27,17,25,7.70
2009,03,27,17,26,7.70
2009,03,27,17,27,7.70
2009,03,27,17,28,7.60
2009,03,27,17,29,7.60
2009,03,27,17,30,7.60
2009,03,27,17,31,7.60
2009,03,27,17,32,7.60
2009,03,27,17,33,7.60
2009,03,27,17,34,7.60
2009,03,27,17,35,7.60
2009,03,27,17,36,7.60
2009,03,27,17,37,7.60
2009,03,27,17,38,7.60
2009,03,27,17,39,7.60
2009,03,27,17,40,7.60
2009,03,27,17,41,7.60
2009,03,27,17,42,7.60
2009,03,27,17,43,7.60
2009,03,27,17,44,7.60
2009,03,27,17,45,7.60
2009,03,27,17,46,7.60
2009,03,27,17,47,7.60
2009,03,27,17,48,7.60
2009,03,27,17,49,7.60
2009,03,27,17,50,7.60
2009,03,27,17,51,7.60
2009,03,27,17,52,7.50
2009,03,27,17,53,7.40
2009,03,27,17,54,7.30
2009,03,27,17,55,7.30
2009,03,27,17,56,7.30
2009,03,27,17,57,7.20
2009,03,27,17,58,7.20
2009,03,27,17,59,7.10
2009,03,27,18,00,7.10
2009,03,27,18,01,7.00
2009,03,27,18,02,7.00
2009,03,27,18,03,7.00
2009,03,27,18,04,6.90
2009,03,27,18,05,6.90
2009,03,27,18,06,6.80
2009,03,27,18,07,6.80